Date String (YYYY-MM-DD hh:mm:ss) UTC,Instrument flags,Ambient pressure (hPa),Sample flow (lpm),Bypass flow (lpm),Sample temperature (°C),Ambient temperature (°C),ASC tube jacket temperature (°C),LED temperature (°C),Box temperature (°C),Sample RH (%),Span deviation,Mass concentration (μg/m³),Mass concentration (μg/m³),Mass concentration (μg/m³)
DateTimeUTC,F1_M11,P_M11,Q1_M11,Q2_M11,T1_M11,T2_M11,T3_M11,T4_M11,T5_M11,U1_M11,ZSPAN_M11,X0_M11,X2_M11,X1_M11
2021-11-27 00:00:00,,0825.3,4.99,0.00,30.0,29.1,00.0,39.0,31.7,07.5,0000.0,0004.61,0001.32,0000.72
2021-11-27 00:01:00,,0825.3,5.01,0.00,30.0,29.1,00.0,39.0,31.7,07.4,0000.0,0004.43,0001.26,0000.71
2021-11-27 00:02:00,,0825.3,5.00,0.00,30.0,29.0,00.0,39.0,31.7,07.4,0000.0,0003.12,0001.19,0000.71
2021-11-27 00:03:00,,0825.4,4.99,0.00,30.1,29.0,00.0,39.0,31.7,07.4,0000.0,0002.74,0001.16,0000.70
2021-11-27 00:04:00,,0825.4,5.01,0.00,30.1,29.0,00.0,39.1,31.8,07.4,0000.0,0002.72,0001.11,0000.70
2021-11-27 00:05:00,,0825.4,5.00,0.00,30.1,29.1,00.0,39.1,31.8,07.4,0000.0,0002.66,0001.09,0000.68
2021-11-27 00:06:00,,0825.4,5.01,0.00,30.1,29.1,00.0,39.1,31.8,07.4,0000.0,0002.36,0001.07,0000.69
2021-11-27 00:07:00,,0825.3,4.98,0.00,30.1,29.1,00.0,39.1,31.7,07.4,0000.0,0001.94,0001.09,0000.74
2021-11-27 00:08:00,,0825.3,5.01,0.00,30.1,29.1,00.0,39.1,31.7,07.4,0000.0,0001.82,0001.10,0000.78
2021-11-27 00:09:00,,0825.3,5.00,0.00,30.1,29.0,00.0,39.1,31.7,07.4,0000.0,0001.70,0001.09,0000.82
2021-11-27 00:10:00,,0825.3,4.99,0.00,30.1,29.0,00.0,39.1,31.7,07.4,0000.0,0003.08,0001.13,0000.84
2021-11-27 00:11:00,,0825.3,4.99,0.00,30.1,29.0,00.0,39.1,31.7,07.4,0000.0,0003.13,0001.14,0000.85
2021-11-27 00:12:00,,0825.4,5.01,0.00,30.1,29.0,00.0,39.1,31.8,07.4,0000.0,0003.14,0001.14,0000.84
2021-11-27 00:13:00,,0825.3,4.99,0.00,30.1,29.0,00.0,39.1,31.7,07.3,0000.0,0003.91,0001.17,0000.84
2021-11-27 00:14:00,,0825.4,5.00,0.00,30.1,29.0,00.0,39.1,31.7,07.4,0000.0,0004.03,0001.17,0000.84
2021-11-27 00:15:00,,0825.3,5.01,0.00,30.1,29.0,00.0,39.1,31.8,07.4,0000.0,0003.95,0001.17,0000.84
2021-11-27 00:16:00,,0825.4,4.99,0.00,30.1,28.9,00.0,39.1,31.7,07.4,0000.0,0004.05,0001.18,0000.83
2021-11-27 00:17:00,,0825.3,4.99,0.00,30.1,28.9,00.0,39.1,31.7,07.4,0000.0,0004.14,0001.15,0000.81
2021-11-27 00:18:00,,0825.3,5.00,0.00,30.1,28.9,00.0,39.1,31.7,07.4,0000.0,0004.65,0001.12,0000.76
2021-11-27 00:19:00,,0825.3,5.01,0.00,30.1,29.0,00.0,39.1,31.7,07.4,0000.0,0004.93,0001.07,0000.70
2021-11-27 00:20:00,,0825.3,5.00,0.00,30.1,29.0,00.0,39.1,31.7,07.4,0000.0,0004.96,0001.05,0000.65
2021-11-27 00:21:00,,0825.3,5.01,0.00,30.1,29.0,00.0,39.1,31.7,07.4,0000.0,0003.94,0001.04,0000.62
2021-11-27 00:22:00,,0825.4,5.00,0.00,30.1,28.9,00.0,39.1,31.6,07.4,0000.0,0004.60,0001.06,0000.61
2021-11-27 00:23:00,,0825.4,4.99,0.00,30.1,28.9,00.0,39.1,31.6,07.3,0000.0,0004.60,0001.06,0000.62
2021-11-27 00:24:00,,0825.3,5.01,0.00,30.1,28.9,00.0,39.1,31.7,07.4,0000.0,0003.72,0001.01,0000.61
2021-11-27 00:25:00,,0825.4,5.00,0.00,30.1,28.9,00.0,39.1,31.7,07.4,0000.0,0003.69,0001.03,0000.60
2021-11-27 00:26:00,,0825.4,5.00,0.00,30.1,28.9,00.0,39.1,31.6,07.4,0000.0,0003.75,0001.04,0000.60
2021-11-27 00:27:00,,0825.4,5.00,0.00,30.1,28.9,00.0,39.1,31.6,07.4,0000.0,0003.68,0001.00,0000.59
2021-11-27 00:28:00,,0825.4,5.00,0.00,30.1,28.9,00.0,39.1,31.7,07.4,0000.0,0003.54,0000.99,0000.58
2021-11-27 00:29:00,,0825.4,5.01,0.00,30.1,28.9,00.0,39.1,31.6,07.4,0000.0,0003.04,0000.97,0000.58
2021-11-27 00:30:00,,0825.4,5.00,0.00,30.1,28.9,00.0,39.1,31.6,07.4,0000.0,0002.70,0000.98,0000.59
2021-11-27 00:31:00,,0825.4,5.01,0.00,30.0,28.9,00.0,39.1,31.7,07.4,0000.0,0002.89,0000.92,0000.59
2021-11-27 00:32:00,,0825.4,4.99,0.00,30.1,29.0,00.0,39.1,31.7,07.4,0000.0,0003.31,0000.88,0000.58
2021-11-27 00:33:00,,0825.4,5.00,0.00,30.1,29.0,00.0,39.1,31.7,07.4,0000.0,0002.95,0000.84,0000.58
2021-11-27 00:34:00,,0825.3,4.99,0.00,30.1,29.0,00.0,39.1,31.7,07.4,0000.0,0003.13,0000.83,0000.58
2021-11-27 00:35:00,,0825.3,4.99,0.00,30.1,29.0,00.0,39.1,31.7,07.3,0000.0,0003.82,0000.84,0000.59
2021-11-27 00:36:00,,0825.3,5.01,0.00,30.1,29.0,00.0,39.1,31.7,07.3,0000.0,0004.34,0000.82,0000.59
2021-11-27 00:37:00,,0825.3,4.98,0.00,30.1,28.9,00.0,39.1,31.7,07.3,0000.0,0004.25,0000.82,0000.58
2021-11-27 00:38:00,,0825.4,5.01,0.00,30.1,28.9,00.0,39.1,31.7,07.3,0000.0,0004.18,0000.82,0000.59
2021-11-27 00:39:00,,0825.3,4.99,0.00,30.1,28.9,00.0,39.1,31.7,07.3,0000.0,0004.26,0000.83,0000.59
2021-11-27 00:40:00,,0825.3,4.99,0.00,30.1,29.0,00.0,39.1,31.7,07.3,0000.0,0004.23,0000.81,0000.59
2021-11-27 00:41:00,,0825.3,4.99,0.00,30.1,28.9,00.0,39.1,31.7,07.3,0000.0,0004.32,0000.81,0000.58
2021-11-27 00:42:00,,0825.3,5.01,0.00,30.1,28.9,00.0,39.1,31.7,07.3,0000.0,0003.98,0000.83,0000.58
2021-11-27 00:43:00,,0825.3,5.00,0.00,30.1,28.9,00.0,39.1,31.7,07.4,0000.0,0003.22,0000.83,0000.57
2021-11-27 00:44:00,,0825.3,4.99,0.00,30.1,28.9,00.0,39.1,31.7,07.4,0000.0,0002.86,0000.82,0000.58
2021-11-27 00:45:00,,0825.4,5.01,0.00,30.1,28.9,00.0,39.1,31.7,07.4,0000.0,0002.73,0000.85,0000.58
2021-11-27 00:46:00,,0825.4,5.00,0.00,30.1,28.9,00.0,39.1,31.7,07.4,0000.0,0002.28,0000.84,0000.58
2021-11-27 00:47:00,,0825.4,5.00,0.00,30.1,28.9,00.0,39.1,31.7,07.4,0000.0,0002.16,0000.84,0000.58
2021-11-27 00:48:00,,0825.4,5.00,0.00,30.1,28.9,00.0,39.1,31.7,07.5,0000.0,0002.56,0000.83,0000.57
2021-11-27 00:49:00,,0825.4,4.99,0.00,30.1,28.9,00.0,39.1,31.7,07.5,0000.0,0002.67,0000.82,0000.57
2021-11-27 00:50:00,,0825.4,5.01,0.00,30.1,28.9,00.0,39.1,31.7,07.5,0000.0,0002.60,0000.81,0000.56
2021-11-27 00:51:00,,0825.4,4.98,0.00,30.1,29.0,00.0,39.1,31.7,07.5,0000.0,0002.71,0000.86,0000.56
2021-11-27 00:52:00,,0825.4,5.01,0.00,30.1,29.0,00.0,39.1,31.7,07.5,0000.0,0002.66,0000.87,0000.56
2021-11-27 00:53:00,,0825.4,4.98,0.00,30.1,29.0,00.0,39.1,31.8,07.5,0000.0,0002.68,0000.89,0000.55
2021-11-27 00:54:00,,0825.4,5.00,0.00,30.1,29.0,00.0,39.1,31.7,07.5,0000.0,0002.68,0000.89,0000.56
2021-11-27 00:55:00,,0825.4,5.00,0.00,30.1,29.0,00.0,39.1,31.7,07.5,0000.0,0002.79,0000.92,0000.55
2021-11-27 00:56:00,,0825.4,4.99,0.00,30.1,29.0,00.0,39.1,31.8,07.5,0000.0,0002.76,0000.90,0000.54
2021-11-27 00:57:00,,0825.5,5.01,0.00,30.1,29.0,00.0,39.1,31.7,07.5,0000.0,0002.55,0000.92,0000.55
2021-11-27 00:58:00,,0825.5,5.00,0.00,30.1,29.0,00.0,39.1,31.8,07.5,0000.0,0002.16,0000.91,0000.55
2021-11-27 00:59:00,,0825.5,5.00,0.00,30.1,29.1,00.0,39.1,31.8,07.5,0000.0,0001.75,0000.92,0000.55
